Location: Pedholt
(56.0260°N, 10.2097°E)
Time: 06:26:42
(UTC+00:00)

Cosmos 2016 Rocket - Pass Details

Date: 14 July 2020
Orbit: 948 x 999 km, 83.0° (Epoch: 07 August)

Event Time Altitude Azimuth Distance (km) Brightness Sun altitude
Exits shadow 01:53:41 - 207° (SSW) 2,941 5.8 -6.2°
Reaches altitude 10° 01:54:22 10° 208° (SSW) 2,691 5.6 -6.2°
Maximum altitude 02:00:26 59° 287° (WNW) 1,119 4.3 -5.7°
Drops below altitude 10° 02:06:38 10° 7° (N) 2,743 7.5 -5.2°
Sets 02:09:14 0° 12° (NNE) 3,702 8.4 -4.9°
